Home > Weather > Differdange > Past weeks

Flag for Luxembourg Weather for the Past 2 Weeks in Differdange, Luxembourg

Now
32 °F

Passing clouds.


Feels Like: 29 °F
Forecast: 34 / 40 °F
Wind: 3 mph from Southwest

Location: Luxembourg Airport

Current Time: Feb 12, 2016 at 1:28:42 AM

Latest Report: Feb 12, 2016 at 12:20 AM


Visibility: N/A

Pressure: 29.68 "Hg

Humidity: 93%

Dew point: 30 °F

Location of DifferdangeLocation

Historic Weather in Differdange — Graph

°F

Differdange Temperature Yesterday

Maximum temperature yesterday: 37 °F (at 1:50 AM)
Minimum temperature yesterday: 34 °F (at 10:20 PM)
Average temperature yesterday: 36 °F

High & Low Weather Summary for the Past Weeks

 TemperatureHumidityPressure
High52 °F (Jan 31, 9:50 PM)100% (Jan 28, 2:50 AM)30.39 "Hg (Jan 28, 2:50 AM)
Low32 °F (Jan 29, 5:50 AM)57% (Feb 3, 4:20 PM)29.00 "Hg (Feb 9, 2:50 PM)
Average42 °F89%29.91 "Hg
* Reported Jan 27 11:20 PM — Feb 11 11:50 PM, Differdange, Weather by CustomWeather, © 2016

Note: Actual official high and low records may vary slightly from our data, if they occured in-between our weather recording intervals... More about our weather records

Advertising

Differdange Weather History for the Previous 24 Hours

 ConditionsComfort  
Time TempWeatherWind HumidityBarometerVisibility
11:50 PM
Thu, Feb 11
34 °FPassing clouds.7 mph93%29.68 "HgN/A
10:50 PM34 °FPassing clouds.6 mph93%29.68 "HgN/A
10:20 PM34 °FPassing clouds.5 mph93%29.71 "HgN/A
9:50 PM36 °FPassing clouds.7 mph93%29.68 "HgN/A
9:20 PM36 °FPassing clouds.6 mph93%29.71 "HgN/A
8:50 PM36 °FSprinkles. Passing clouds.5 mph93%29.71 "HgN/A
8:20 PM36 °FSprinkles. Passing clouds.5 mph93%29.68 "HgN/A
7:50 PM36 °FPartly cloudy.6 mph93%29.68 "HgN/A
7:20 PM36 °FPartly cloudy.7 mph93%29.68 "HgN/A
6:50 PM36 °FSprinkles. Mostly cloudy.9 mph93%29.68 "HgN/A
6:20 PM36 °FSprinkles. Partly cloudy.9 mph93%29.68 "HgN/A
5:50 PM37 °FPartly cloudy.6 mph87%29.68 "HgN/A
5:20 PM37 °FBroken clouds.7 mph87%29.68 "HgN/A
4:50 PM37 °FBroken clouds.6 mph87%29.68 "HgN/A
4:20 PM37 °FOvercast.8 mph87%29.68 "HgN/A
3:50 PM37 °FPartly sunny.6 mph87%29.68 "HgN/A
3:20 PM37 °FPartly sunny.8 mph87%29.68 "HgN/A
2:50 PM37 °FPartly sunny.8 mph87%29.68 "HgN/A
2:20 PM37 °FLow clouds.6 mph93%29.68 "HgN/A
1:50 PM36 °FPartly sunny.7 mph100%29.68 "HgN/A
1:20 PM36 °FPartly sunny.7 mph93%29.71 "HgN/A
12:50 PM36 °FPartly sunny.7 mph93%29.71 "HgN/A
12:20 PM36 °FPartly sunny.8 mph93%29.71 "HgN/A
11:50 AM36 °FPartly sunny.8 mph93%29.71 "HgN/A
11:20 AM36 °FPartly sunny.10 mph93%29.71 "HgN/A
10:50 AM36 °FLight rain. Partly sunny.8 mph93%29.71 "HgN/A
10:20 AM36 °FLight rain. Partly sunny.8 mph100%29.71 "Hg6 mi
9:50 AM36 °FPartly sunny.10 mph100%29.71 "Hg6 mi
9:20 AM36 °FPartly sunny.12 mph100%29.71 "Hg4 mi
8:50 AM36 °FPartly sunny.9 mph100%29.68 "Hg4 mi
8:20 AM36 °FPartly sunny.8 mph100%29.68 "Hg4 mi
7:50 AM36 °FFog.8 mph100%29.68 "Hg3 mi
7:20 AM36 °FPassing clouds.8 mph100%29.68 "Hg6 mi
6:50 AM36 °FSprinkles. Mostly cloudy.9 mph100%29.68 "Hg4 mi
6:20 AM36 °FMostly cloudy.7 mph100%29.68 "Hg5 mi
5:50 AM36 °FMostly cloudy.8 mph100%29.68 "Hg4 mi
5:20 AM36 °FMostly cloudy.7 mph100%29.68 "HgN/A
4:50 AM36 °FPartly cloudy.7 mph100%29.65 "HgN/A
4:20 AM37 °FPartly cloudy.10 mph93%29.65 "HgN/A
3:50 AM37 °FPartly cloudy.9 mph93%29.65 "HgN/A
2:50 AM37 °FOvercast.10 mph93%29.65 "HgN/A
2:20 AM37 °FMostly cloudy.13 mph93%29.65 "HgN/A
1:50 AM37 °FMostly cloudy.10 mph93%29.65 "HgN/A
1:20 AM36 °FSprinkles. Mostly cloudy.8 mph100%29.62 "HgN/A
Weather by CustomWeather, © 2016

See weather overviewHow to use our weather pages